User: anonymous   Login
Location: *
(45.8589°N, 4.7139°E)
Time: 00:49:34
(UTC+00:00)
Language:

SPOT 3 Rocket - Orbit

View from above orbital plane
View from above orbital plane
View from above satellite
View from above satellite

Ground track
Ground track

The orbit data is extracted from the following two-line orbital elements,

1 22830U 93061H   20188.38556608 -.00000015 +00000-0 +11356-4 0  9991
2 22830 098.7634 237.7543 0009773 266.0092 093.9973 14.31452009397532
Epoch (UTC): 06 July 2020 09:15:12
Eccentricity: 0.0009773
inclination: 98.7634°
perigee height: 780 km
apogee height: 794 km
right ascension of ascending node: 237.7543°
argument of perigee: 266.0092°
revolutions per day: 14.31452009
mean anomaly at epoch: 93.9973°
orbit number at epoch: 39753

The dashed part of the orbit path shows where the satellite is in the earth's shadow,  

DLR